Precipitable_Water
1.41 1.40 1.43 1.41 1.34 1.21 1.12 1.06 1.00 1.01 0.98 0.95 0.90 0.86 0.84 0.84 0.83 0.84 0.94 0.98 1.01 1.00 0.99 1.01 1.07 1.12 1.20 1.27 1.34 1.35 1.31 1.28 1.29 1.30 1.30 1.31 1.32 1.34 1.39 1.41 1.38 1.36 1.35 1.37 1.40 1.35 1.31 1.30 1.29 1.29 1.32 1.26 1.25 1.27 1.27 1.26 1.24 1.22 1.24 1.23 1.22 1.27 1.21 1.11 0.99 0.93 1.03 1.23 1.15 1.08 1.14 1.19 1.06 1.14 1.11 1.18 1.24 1.32 1.38 1.40 1.48 1.53 1.62 1.71 1.79
1.39 1.41 1.44 1.45 1.40 1.33 1.22 1.15 1.09 1.04 0.99 0.97 0.94 0.93 0.90 0.88 0.88 0.89 0.88 0.92 0.98 0.96 0.96 0.99 1.05 1.08 1.14 1.20 1.26 1.31 1.33 1.32 1.30 1.28 1.24 1.23 1.26 1.30 1.30 1.31 1.32 1.34 1.35 1.29 1.34 1.34 1.31 1.26 1.25 1.27 1.30 1.24 1.23 1.22 1.22 1.22 1.23 1.22 1.22 1.23 1.22 1.24 1.31 1.18 1.10 1.04 0.92 1.08 1.10 1.20 1.14 1.22 1.03 1.16 1.12 1.12 1.17 1.28 1.30 1.36 1.48 1.59 1.69 1.77 1.82
1.43 1.44 1.44 1.43 1.43 1.42 1.36 1.25 1.17 1.10 1.03 0.99 0.95 0.95 0.97 0.95 0.95 0.90 0.89 0.90 0.96 0.97 0.96 0.99 1.03 1.07 1.09 1.15 1.21 1.24 1.28 1.31 1.35 1.30 1.23 1.19 1.18 1.24 1.25 1.23 1.22 1.26 1.29 1.28 1.30 1.34 1.29 1.27 1.26 1.28 1.33 1.27 1.25 1.24 1.26 1.23 1.25 1.22 1.20 1.24 1.23 1.26 1.31 1.29 1.18 1.05 1.02 1.04 1.14 1.10 1.08 1.09 1.04 1.04 1.15 1.19 1.23 1.28 1.28 1.35 1.45 1.58 1.74 1.84 1.85
1.50 1.45 1.43 1.43 1.45 1.45 1.41 1.37 1.27 1.17 1.09 1.04 0.98 0.96 0.97 1.00 1.02 0.97 0.93 0.92 0.91 0.95 0.98 0.99 1.03 1.06 1.08 1.13 1.18 1.20 1.22 1.27 1.33 1.34 1.28 1.22 1.17 1.16 1.21 1.22 1.19 1.19 1.24 1.27 1.28 1.29 1.27 1.26 1.27 1.31 1.34 1.28 1.25 1.25 1.26 1.26 1.23 1.21 1.18 1.20 1.24 1.24 1.30 1.32 1.29 1.17 1.13 1.03 1.07 1.07 1.07 1.01 1.01 1.12 1.17 1.22 1.22 1.21 1.26 1.36 1.50 1.61 1.75 1.84 1.88
1.60 1.54 1.46 1.41 1.43 1.43 1.42 1.41 1.35 1.26 1.17 1.10 1.03 1.00 0.98 0.98 1.03 1.02 1.00 0.96 0.94 0.93 0.95 1.00 1.03 1.05 1.06 1.10 1.15 1.17 1.19 1.22 1.25 1.28 1.30 1.29 1.24 1.19 1.17 1.19 1.21 1.21 1.19 1.20 1.24 1.25 1.25 1.22 1.26 1.32 1.33 1.26 1.25 1.22 1.23 1.18 1.19 1.17 1.13 1.16 1.19 1.24 1.29 1.31 1.29 1.28 1.17 1.07 1.05 1.09 1.08 1.04 1.06 1.06 1.13 1.09 1.14 1.18 1.25 1.32 1.47 1.64 1.75 1.87 1.94
1.65 1.61 1.56 1.47 1.41 1.39 1.39 1.40 1.37 1.32 1.26 1.19 1.11 1.06 1.01 0.99 0.98 1.03 1.04 0.99 0.97 0.94 0.93 0.97 1.00 1.02 1.05 1.08 1.13 1.17 1.21 1.24 1.24 1.25 1.27 1.28 1.27 1.25 1.22 1.18 1.17 1.20 1.22 1.23 1.23 1.23 1.19 1.18 1.21 1.27 1.28 1.23 1.20 1.20 1.21 1.17 1.17 1.14 1.13 1.14 1.16 1.19 1.20 1.22 1.24 1.22 1.17 1.10 1.06 0.98 0.98 0.95 0.94 0.96 1.08 1.17 1.09 1.03 1.13 1.31 1.52 1.70 1.75 1.77 1.80
1.67 1.64 1.62 1.56 1.48 1.42 1.39 1.37 1.38 1.36 1.34 1.28 1.23 1.16 1.09 1.03 0.99 0.98 1.03 1.03 1.00 0.97 0.95 0.95 1.00 1.03 1.05 1.08 1.09 1.13 1.18 1.23 1.25 1.26 1.28 1.29 1.28 1.26 1.24 1.22 1.19 1.18 1.18 1.20 1.24 1.27 1.25 1.21 1.19 1.20 1.21 1.22 1.20 1.19 1.19 1.18 1.16 1.12 1.13 1.13 1.16 1.17 1.15 1.13 1.15 1.14 1.13 1.08 1.07 1.05 0.95 0.96 0.97 0.84 1.04 1.18 1.19 1.17 1.11 1.21 1.37 1.65 1.73 1.68 1.66
1.68 1.67 1.65 1.61 1.56 1.52 1.48 1.45 1.43 1.42 1.40 1.38 1.32 1.26 1.20 1.13 1.07 1.03 1.03 1.03 1.02 1.01 0.97 0.96 1.00 1.05 1.07 1.08 1.09 1.13 1.15 1.17 1.22 1.26 1.27 1.28 1.28 1.26 1.26 1.23 1.20 1.18 1.18 1.19 1.19 1.19 1.19 1.20 1.21 1.22 1.21 1.21 1.20 1.18 1.18 1.12 1.14 1.12 1.14 1.15 1.14 1.12 1.07 1.08 1.09 1.09 1.07 1.05 1.01 0.93 0.93 0.87 0.88 0.97 1.06 1.10 1.05 1.11 1.26 1.30 1.32 1.45 1.50 1.63 1.75
1.71 1.70 1.68 1.64 1.61 1.61 1.60 1.56 1.52 1.48 1.45 1.43 1.38 1.33 1.28 1.23 1.18 1.12 1.08 1.06 1.06 1.05 1.04 1.03 1.02 1.05 1.08 1.10 1.11 1.15 1.14 1.13 1.16 1.18 1.22 1.25 1.28 1.25 1.24 1.22 1.20 1.17 1.16 1.17 1.20 1.20 1.19 1.18 1.16 1.16 1.16 1.15 1.15 1.15 1.15 1.14 1.10 1.05 1.07 1.14 1.13 1.11 1.08 1.09 1.08 1.07 1.06 1.03 0.96 0.95 0.89 0.82 0.82 0.84 0.85 0.91 0.93 0.99 1.22 1.41 1.44 1.51 1.53 1.54 1.70
1.74 1.71 1.70 1.68 1.69 1.69 1.68 1.64 1.59 1.54 1.48 1.43 1.41 1.39 1.35 1.30 1.25 1.20 1.15 1.12 1.10 1.10 1.10 1.09 1.08 1.06 1.06 1.08 1.11 1.14 1.14 1.14 1.13 1.14 1.16 1.17 1.20 1.22 1.22 1.21 1.20 1.17 1.14 1.11 1.12 1.14 1.14 1.15 1.14 1.12 1.10 1.08 1.07 1.07 1.08 1.09 1.10 1.08 1.03 1.07 1.10 1.11 1.10 1.07 1.04 1.01 0.97 0.92 0.87 0.84 0.79 0.75 0.76 0.83 0.86 0.94 1.08 1.18 1.21 1.33 1.31 1.44 1.54 1.51 1.59
1.73 1.72 1.70 1.75 1.77 1.76 1.73 1.69 1.66 1.59 1.54 1.48 1.44 1.41 1.38 1.36 1.31 1.27 1.23 1.20 1.17 1.15 1.15 1.12 1.11 1.10 1.08 1.08 1.09 1.11 1.13 1.13 1.11 1.11 1.12 1.15 1.17 1.18 1.17 1.16 1.18 1.16 1.13 1.08 1.03 1.02 1.04 1.05 1.04 1.04 1.05 1.04 1.03 1.02 1.02 1.04 1.05 1.05 1.07 1.10 1.15 1.13 1.08 1.04 0.99 0.97 0.93 0.89 0.89 0.90 0.84 0.77 0.78 0.90 0.95 0.99 1.07 1.11 1.17 1.28 1.32 1.42 1.44 1.35 1.29
1.65 1.66 1.70 1.76 1.79 1.78 1.78 1.76 1.71 1.66 1.60 1.52 1.46 1.44 1.42 1.38 1.34 1.31 1.29 1.26 1.24 1.22 1.18 1.14 1.13 1.12 1.11 1.10 1.10 1.10 1.10 1.12 1.12 1.11 1.11 1.12 1.15 1.16 1.16 1.14 1.15 1.14 1.13 1.10 1.06 1.04 1.03 1.04 1.05 1.05 1.05 1.04 1.02 1.02 1.03 1.04 1.04 1.04 1.06 1.08 1.12 1.17 1.18 1.10 1.00 0.97 0.97 0.92 0.90 0.88 0.88 0.83 0.83 0.93 0.99 1.03 1.03 1.10 1.18 1.27 1.35 1.43 1.44 1.38 1.40
1.71 1.69 1.70 1.72 1.76 1.80 1.81 1.79 1.76 1.71 1.66 1.60 1.54 1.48 1.44 1.40 1.35 1.32 1.30 1.31 1.30 1.25 1.20 1.18 1.14 1.14 1.12 1.09 1.08 1.09 1.09 1.11 1.13 1.12 1.12 1.13 1.13 1.15 1.15 1.15 1.13 1.12 1.12 1.10 1.08 1.06 1.04 1.03 1.02 1.05 1.05 1.05 1.07 1.07 1.06 1.05 1.07 1.07 1.08 1.12 1.15 1.17 1.18 1.19 1.20 1.13 1.10 1.06 0.98 0.92 0.91 0.94 0.90 0.94 1.06 1.07 1.14 1.06 1.15 1.23 1.39 1.49 1.52 1.44 1.46
1.75 1.76 1.76 1.73 1.75 1.78 1.80 1.80 1.78 1.77 1.75 1.68 1.60 1.52 1.46 1.40 1.39 1.38 1.36 1.35 1.32 1.28 1.26 1.21 1.17 1.15 1.13 1.10 1.09 1.09 1.08 1.09 1.10 1.11 1.12 1.14 1.15 1.17 1.16 1.14 1.13 1.12 1.11 1.11 1.11 1.10 1.09 1.06 1.01 0.98 1.01 1.03 1.05 1.06 1.07 1.05 1.06 1.07 1.09 1.11 1.12 1.14 1.18 1.20 1.20 1.21 1.24 1.16 1.10 0.99 1.02 1.12 0.99 1.01 1.13 1.21 1.13 1.10 1.15 1.24 1.43 1.49 1.51 1.48 1.60
1.74 1.83 1.85 1.81 1.78 1.78 1.79 1.80 1.79 1.81 1.81 1.77 1.68 1.57 1.49 1.46 1.43 1.42 1.39 1.35 1.32 1.28 1.25 1.22 1.21 1.19 1.16 1.15 1.11 1.09 1.09 1.10 1.10 1.09 1.11 1.14 1.16 1.19 1.20 1.19 1.16 1.14 1.14 1.15 1.14 1.14 1.14 1.13 1.09 1.03 1.00 1.00 1.02 1.03 1.03 1.04 1.05 1.07 1.08 1.08 1.10 1.12 1.15 1.17 1.17 1.19 1.21 1.23 1.21 1.16 1.13 1.20 1.19 1.17 1.21 1.28 1.27 1.31 1.36 1.38 1.52 1.61 1.65 1.68 1.66
1.77 1.81 1.81 1.84 1.81 1.79 1.79 1.80 1.81 1.83 1.83 1.81 1.75 1.66 1.58 1.50 1.45 1.46 1.44 1.42 1.42 1.39 1.36 1.32 1.25 1.21 1.20 1.18 1.14 1.09 1.11 1.13 1.13 1.12 1.12 1.13 1.16 1.20 1.22 1.21 1.19 1.17 1.15 1.16 1.16 1.16 1.16 1.14 1.11 1.07 1.03 1.00 1.00 1.03 1.07 1.10 1.10 1.08 1.06 1.08 1.11 1.14 1.15 1.18 1.24 1.28 1.28 1.28 1.27 1.25 1.23 1.25 1.30 1.29 1.31 1.32 1.35 1.43 1.50 1.60 1.69 1.69 1.58 1.46 1.39
1.75 1.70 1.68 1.76 1.83 1.85 1.82 1.80 1.83 1.84 1.85 1.82 1.77 1.73 1.68 1.61 1.55 1.54 1.48 1.44 1.41 1.38 1.36 1.34 1.32 1.27 1.23 1.20 1.15 1.11 1.10 1.14 1.16 1.16 1.15 1.16 1.19 1.20 1.21 1.21 1.20 1.18 1.15 1.16 1.16 1.17 1.17 1.17 1.14 1.09 1.06 1.02 1.00 1.03 1.07 1.14 1.12 1.09 1.05 1.04 1.08 1.11 1.08 1.16 1.24 1.25 1.25 1.27 1.29 1.30 1.29 1.29 1.32 1.34 1.36 1.40 1.44 1.52 1.50 1.42 1.45 1.59 1.45 1.32 1.32
1.73 1.70 1.71 1.78 1.85 1.92 1.88 1.83 1.83 1.85 1.85 1.81 1.81 1.82 1.81 1.77 1.68 1.61 1.51 1.47 1.44 1.43 1.43 1.40 1.38 1.34 1.27 1.21 1.20 1.14 1.12 1.17 1.19 1.19 1.18 1.20 1.22 1.20 1.21 1.21 1.18 1.18 1.17 1.19 1.20 1.20 1.20 1.20 1.19 1.15 1.10 1.05 1.02 1.04 1.08 1.15 1.13 1.09 1.05 1.02 1.00 1.00 0.99 1.07 1.15 1.17 1.22 1.24 1.26 1.27 1.28 1.30 1.33 1.35 1.37 1.39 1.48 1.59 1.50 1.31 1.49 1.53 1.39 1.34 1.23
1.82 1.81 1.82 1.83 1.86 1.90 1.88 1.84 1.84 1.85 1.82 1.82 1.87 1.87 1.86 1.82 1.80 1.76 1.64 1.57 1.52 1.53 1.52 1.45 1.41 1.38 1.34 1.29 1.26 1.22 1.18 1.20 1.22 1.21 1.22 1.23 1.26 1.27 1.26 1.24 1.20 1.19 1.19 1.18 1.22 1.22 1.20 1.22 1.22 1.20 1.14 1.07 1.04 1.05 1.09 1.15 1.14 1.11 1.09 1.07 1.02 0.96 0.93 1.03 1.07 1.09 1.14 1.17 1.20 1.24 1.24 1.30 1.35 1.37 1.35 1.39 1.49 1.57 1.58 1.54 1.59 1.51 1.37 1.34 1.32
1.88 1.93 1.94 1.89 1.88 1.86 1.84 1.84 1.86 1.84 1.80 1.84 1.90 1.90 1.94 1.93 1.87 1.80 1.74 1.65 1.57 1.58 1.57 1.54 1.46 1.42 1.41 1.37 1.34 1.30 1.25 1.25 1.26 1.24 1.24 1.26 1.29 1.32 1.32 1.26 1.19 1.18 1.20 1.19 1.16 1.20 1.21 1.20 1.21 1.19 1.15 1.11 1.08 1.08 1.10 1.16 1.17 1.16 1.18 1.13 1.06 0.95 1.02 1.11 1.14 1.16 1.17 1.18 1.20 1.25 1.25 1.34 1.36 1.35 1.32 1.34 1.44 1.52 1.55 1.58 1.58 1.55 1.46 1.42 1.41
1.92 1.98 1.97 1.91 1.86 1.84 1.85 1.86 1.86 1.86 1.85 1.85 1.90 1.94 1.96 1.92 1.91 1.87 1.80 1.77 1.67 1.59 1.58 1.58 1.55 1.52 1.50 1.46 1.41 1.38 1.34 1.29 1.28 1.26 1.26 1.27 1.30 1.33 1.34 1.29 1.25 1.23 1.22 1.21 1.20 1.17 1.18 1.19 1.19 1.17 1.16 1.14 1.13 1.13 1.15 1.17 1.21 1.23 1.22 1.15 1.13 1.12 1.23 1.21 1.19 1.26 1.24 1.24 1.24 1.26 1.26 1.29 1.29 1.28 1.26 1.31 1.38 1.45 1.50 1.54 1.57 1.60 1.57 1.52 1.50
1.88 1.93 1.90 1.85 1.85 1.85 1.86 1.88 1.91 1.89 1.88 1.88 1.87 1.86 1.91 1.95 1.95 1.91 1.89 1.83 1.75 1.65 1.58 1.59 1.58 1.57 1.58 1.56 1.49 1.43 1.42 1.38 1.32 1.29 1.28 1.28 1.30 1.34 1.35 1.32 1.31 1.28 1.24 1.22 1.23 1.22 1.20 1.20 1.19 1.18 1.18 1.15 1.14 1.15 1.17 1.19 1.23 1.27 1.24 1.23 1.25 1.29 1.29 1.30 1.29 1.29 1.28 1.27 1.27 1.25 1.25 1.23 1.22 1.22 1.26 1.30 1.35 1.40 1.44 1.49 1.55 1.61 1.71 1.76 1.66
1.68 1.78 1.79 1.75 1.75 1.75 1.78 1.81 1.84 1.88 1.88 1.86 1.82 1.80 1.87 1.92 1.93 1.94 1.90 1.86 1.80 1.73 1.65 1.58 1.57 1.57 1.59 1.60 1.57 1.52 1.47 1.45 1.40 1.33 1.30 1.30 1.31 1.34 1.36 1.36 1.36 1.37 1.30 1.23 1.22 1.20 1.23 1.24 1.25 1.26 1.24 1.20 1.19 1.18 1.17 1.18 1.23 1.24 1.27 1.31 1.33 1.35 1.37 1.36 1.33 1.30 1.28 1.28 1.26 1.21 1.22 1.22 1.19 1.18 1.21 1.23 1.28 1.32 1.37 1.45 1.53 1.64 1.74 1.76 1.67
1.46 1.57 1.63 1.65 1.66 1.69 1.72 1.73 1.78 1.83 1.84 1.84 1.82 1.79 1.81 1.84 1.89 1.91 1.90 1.86 1.80 1.74 1.70 1.63 1.57 1.54 1.53 1.55 1.59 1.58 1.55 1.51 1.45 1.38 1.32 1.29 1.30 1.31 1.33 1.36 1.38 1.37 1.36 1.31 1.28 1.26 1.24 1.25 1.27 1.29 1.27 1.25 1.25 1.23 1.22 1.22 1.21 1.22 1.26 1.29 1.33 1.37 1.37 1.34 1.30 1.28 1.27 1.25 1.22 1.21 1.20 1.23 1.23 1.20 1.19 1.24 1.25 1.29 1.37 1.47 1.55 1.61 1.60 1.57 1.55
1.28 1.36 1.49 1.60 1.64 1.66 1.71 1.72 1.74 1.78 1.84 1.85 1.78 1.76 1.76 1.80 1.79 1.85 1.87 1.85 1.80 1.73 1.69 1.67 1.58 1.53 1.54 1.54 1.55 1.58 1.59 1.56 1.50 1.43 1.36 1.30 1.29 1.29 1.30 1.33 1.36 1.39 1.37 1.35 1.34 1.30 1.28 1.30 1.34 1.32 1.28 1.28 1.29 1.29 1.28 1.26 1.26 1.27 1.28 1.27 1.28 1.28 1.28 1.28 1.27 1.28 1.23 1.20 1.20 1.23 1.24 1.24 1.25 1.26 1.33 1.33 1.32 1.34 1.36 1.40 1.44 1.46 1.49 1.50 1.45
1.18 1.22 1.31 1.42 1.52 1.59 1.60 1.65 1.71 1.75 1.78 1.82 1.79 1.76 1.74 1.74 1.72 1.76 1.80 1.79 1.77 1.72 1.67 1.66 1.61 1.55 1.52 1.54 1.55 1.57 1.60 1.59 1.52 1.47 1.41 1.35 1.31 1.29 1.30 1.31 1.34 1.38 1.37 1.33 1.33 1.34 1.34 1.35 1.35 1.33 1.33 1.33 1.31 1.28 1.25 1.26 1.30 1.32 1.32 1.30 1.27 1.26 1.28 1.28 1.28 1.26 1.22 1.24 1.26 1.24 1.26 1.32 1.34 1.39 1.44 1.40 1.30 1.26 1.27 1.26 1.29 1.33 1.38 1.37 1.34
1.12 1.17 1.23 1.33 1.47 1.60 1.60 1.60 1.62 1.66 1.71 1.74 1.76 1.78 1.78 1.74 1.70 1.68 1.68 1.67 1.68 1.67 1.67 1.65 1.61 1.56 1.51 1.52 1.57 1.62 1.63 1.61 1.56 1.48 1.43 1.36 1.29 1.27 1.28 1.30 1.33 1.36 1.36 1.35 1.35 1.37 1.38 1.40 1.38 1.37 1.36 1.36 1.34 1.32 1.31 1.35 1.35 1.34 1.33 1.33 1.33 1.37 1.39 1.38 1.35 1.33 1.33 1.33 1.32 1.32 1.35 1.40 1.48 1.46 1.39 1.36 1.30 1.29 1.30 1.28 1.28 1.32 1.37 1.36 1.29
1.06 1.11 1.20 1.31 1.38 1.46 1.54 1.57 1.58 1.57 1.64 1.69 1.69 1.72 1.75 1.74 1.68 1.63 1.60 1.61 1.62 1.65 1.68 1.65 1.60 1.56 1.53 1.57 1.63 1.66 1.65 1.63 1.57 1.47 1.39 1.33 1.28 1.26 1.25 1.25 1.27 1.27 1.26 1.28 1.32 1.38 1.41 1.42 1.40 1.38 1.35 1.31 1.29 1.29 1.30 1.31 1.33 1.34 1.35 1.38 1.42 1.46 1.49 1.52 1.54 1.52 1.49 1.49 1.47 1.49 1.49 1.49 1.43 1.42 1.42 1.36 1.31 1.33 1.35 1.32 1.31 1.32 1.34 1.29 1.23
1.06 1.13 1.23 1.33 1.38 1.45 1.51 1.54 1.54 1.54 1.59 1.66 1.71 1.72 1.68 1.69 1.70 1.70 1.77 1.77 1.69 1.63 1.62 1.62 1.63 1.64 1.64 1.62 1.62 1.61 1.63 1.60 1.55 1.53 1.44 1.37 1.29 1.22 1.16 1.14 1.17 1.21 1.23 1.28 1.35 1.41 1.39 1.33 1.28 1.25 1.23 1.20 1.19 1.19 1.23 1.27 1.30 1.35 1.39 1.43 1.46 1.48 1.49 1.48 1.44 1.43 1.48 1.50 1.48 1.51 1.53 1.54 1.50 1.48 1.42 1.36 1.35 1.36 1.39 1.34 1.35 1.31 1.31 1.28 1.24
1.03 1.10 1.22 1.31 1.37 1.40 1.44 1.50 1.53 1.53 1.56 1.58 1.64 1.74 1.85 1.85 1.82 1.74 1.71 1.78 1.78 1.76 1.72 1.64 1.68 1.75 1.72 1.69 1.70 1.62 1.58 1.62 1.70 1.68 1.55 1.44 1.38 1.31 1.21 1.16 1.16 1.17 1.19 1.24 1.31 1.29 1.25 1.21 1.20 1.19 1.19 1.21 1.21 1.25 1.30 1.36 1.39 1.44 1.52 1.56 1.55 1.51 1.50 1.50 1.50 1.51 1.55 1.56 1.61 1.62 1.62 1.63 1.60 1.60 1.56 1.50 1.50 1.51 1.51 1.47 1.41 1.40 1.33 1.30 1.29
1.04 1.13 1.22 1.29 1.35 1.39 1.43 1.45 1.51 1.52 1.54 1.57 1.62 1.65 1.71 1.83 1.90 1.92 1.90 1.88 1.85 1.82 1.80 1.79 1.82 1.82 1.75 1.64 1.69 1.75 1.78 1.82 1.80 1.71 1.60 1.50 1.42 1.37 1.30 1.22 1.17 1.16 1.20 1.24 1.24 1.21 1.17 1.16 1.18 1.21 1.22 1.24 1.25 1.30 1.39 1.45 1.51 1.58 1.62 1.67 1.67 1.63 1.60 1.58 1.58 1.62 1.63 1.66 1.69 1.71 1.70 1.65 1.62 1.62 1.58 1.56 1.56 1.58 1.57 1.53 1.45 1.37 1.32 1.31 1.31
1.03 1.13 1.24 1.30 1.36 1.41 1.46 1.46 1.46 1.45 1.48 1.57 1.63 1.66 1.67 1.66 1.75 1.87 1.90 1.91 1.90 1.89 1.85 1.83 1.82 1.79 1.77 1.74 1.70 1.71 1.77 1.81 1.79 1.70 1.59 1.52 1.46 1.39 1.34 1.30 1.27 1.25 1.26 1.28 1.20 1.17 1.20 1.18 1.17 1.19 1.24 1.26 1.29 1.39 1.49 1.56 1.64 1.71 1.74 1.70 1.67 1.70 1.69 1.67 1.74 1.77 1.77 1.78 1.75 1.73 1.70 1.65 1.60 1.56 1.56 1.56 1.56 1.53 1.49 1.46 1.43 1.41 1.43 1.43 1.40
1.13 1.17 1.27 1.35 1.40 1.41 1.42 1.45 1.46 1.47 1.44 1.46 1.54 1.63 1.65 1.65 1.61 1.64 1.78 1.85 1.87 1.85 1.84 1.84 1.81 1.77 1.74 1.75 1.77 1.75 1.76 1.80 1.79 1.70 1.59 1.53 1.49 1.43 1.38 1.35 1.35 1.37 1.37 1.30 1.22 1.17 1.19 1.20 1.20 1.23 1.28 1.29 1.37 1.48 1.58 1.71 1.79 1.83 1.83 1.76 1.72 1.76 1.79 1.84 1.89 1.86 1.85 1.84 1.82 1.76 1.73 1.68 1.62 1.59 1.61 1.62 1.59 1.53 1.54 1.51 1.52 1.52 1.51 1.44 1.39
1.23 1.26 1.31 1.35 1.41 1.44 1.43 1.41 1.43 1.47 1.52 1.52 1.50 1.49 1.47 1.45 1.41 1.42 1.44 1.51 1.60 1.70 1.79 1.79 1.75 1.69 1.70 1.75 1.80 1.81 1.81 1.82 1.80 1.71 1.59 1.53 1.50 1.47 1.44 1.42 1.40 1.38 1.35 1.26 1.22 1.16 1.19 1.22 1.26 1.31 1.37 1.43 1.50 1.60 1.70 1.80 1.88 1.89 1.90 1.95 1.91 1.91 1.92 1.96 1.91 1.87 1.88 1.88 1.86 1.84 1.81 1.77 1.76 1.74 1.74 1.74 1.72 1.67 1.62 1.59 1.58 1.53 1.47 1.42 1.36
1.23 1.27 1.38 1.43 1.43 1.45 1.50 1.51 1.47 1.44 1.39 1.37 1.38 1.43 1.47 1.51 1.52 1.53 1.53 1.47 1.39 1.33 1.41 1.60 1.68 1.66 1.66 1.74 1.83 1.85 1.84 1.84 1.81 1.71 1.59 1.54 1.50 1.49 1.46 1.37 1.28 1.27 1.27 1.27 1.25 1.25 1.27 1.29 1.31 1.37 1.43 1.50 1.60 1.71 1.79 1.88 1.91 1.95 1.96 1.98 2.01 2.03 2.00 1.98 1.95 1.94 1.92 1.91 1.88 1.85 1.83 1.82 1.85 1.88 1.85 1.77 1.69 1.63 1.61 1.59 1.56 1.51 1.46 1.43 1.40
1.20 1.23 1.28 1.40 1.47 1.47 1.51 1.53 1.56 1.59 1.60 1.58 1.53 1.51 1.51 1.54 1.59 1.65 1.69 1.67 1.67 1.61 1.57 1.65 1.68 1.66 1.67 1.75 1.83 1.85 1.85 1.84 1.78 1.67 1.59 1.56 1.53 1.48 1.34 1.24 1.21 1.21 1.22 1.27 1.30 1.33 1.37 1.39 1.41 1.45 1.54 1.63 1.76 1.86 1.95 1.97 1.95 1.93 1.89 1.90 1.97 2.03 2.06 2.04 2.00 1.96 1.94 1.90 1.87 1.86 1.84 1.84 1.86 1.85 1.82 1.77 1.70 1.66 1.63 1.60 1.55 1.48 1.46 1.43 1.43
1.20 1.22 1.24 1.28 1.41 1.49 1.53 1.57 1.58 1.61 1.64 1.69 1.79 1.77 1.76 1.74 1.77 1.77 1.73 1.70 1.64 1.66 1.65 1.61 1.68 1.67 1.66 1.74 1.81 1.84 1.85 1.81 1.73 1.64 1.58 1.55 1.52 1.48 1.38 1.30 1.26 1.27 1.28 1.30 1.34 1.39 1.40 1.43 1.49 1.56 1.66 1.75 1.88 2.01 2.04 2.00 1.97 1.94 1.96 2.02 2.01 1.96 1.94 1.98 2.01 1.97 1.92 1.88 1.86 1.83 1.81 1.81 1.83 1.82 1.77 1.71 1.70 1.68 1.64 1.58 1.50 1.46 1.45 1.44 1.46
1.21 1.24 1.24 1.26 1.31 1.45 1.53 1.54 1.55 1.62 1.69 1.77 1.80 1.80 1.82 1.83 1.79 1.85 1.84 1.74 1.71 1.64 1.57 1.51 1.59 1.65 1.53 1.57 1.73 1.75 1.71 1.70 1.67 1.59 1.54 1.50 1.46 1.41 1.39 1.38 1.38 1.35 1.34 1.38 1.42 1.45 1.46 1.53 1.62 1.67 1.77 1.88 1.92 1.95 2.04 2.13 2.15 2.08 1.96 1.96 2.02 2.04 2.02 1.97 1.95 1.93 1.90 1.88 1.87 1.84 1.82 1.79 1.79 1.79 1.74 1.69 1.68 1.66 1.61 1.54 1.47 1.43 1.42 1.44 1.45
1.21 1.26 1.28 1.27 1.27 1.37 1.51 1.55 1.60 1.66 1.76 1.83 1.83 1.82 1.84 1.87 1.96 1.96 1.93 1.88 1.79 1.72 1.61 1.49 1.49 1.62 1.64 1.65 1.61 1.61 1.58 1.52 1.47 1.44 1.45 1.47 1.48 1.48 1.47 1.47 1.46 1.47 1.49 1.51 1.55 1.57 1.60 1.64 1.73 1.80 1.86 1.90 1.93 2.02 2.03 1.97 2.00 2.03 1.95 1.92 1.91 1.92 1.89 1.86 1.87 1.90 1.87 1.83 1.83 1.85 1.82 1.78 1.77 1.77 1.72 1.67 1.62 1.59 1.54 1.47 1.44 1.43 1.41 1.42 1.42
1.21 1.25 1.30 1.33 1.30 1.32 1.46 1.55 1.60 1.68 1.73 1.74 1.79 1.82 1.88 1.91 1.95 1.87 1.88 1.85 1.76 1.67 1.60 1.53 1.48 1.57 1.73 1.71 1.55 1.51 1.45 1.43 1.46 1.50 1.52 1.52 1.51 1.53 1.55 1.56 1.58 1.59 1.60 1.61 1.64 1.68 1.72 1.77 1.83 1.85 1.87 1.88 1.91 1.97 2.00 1.97 2.02 2.06 2.00 1.89 1.73 1.67 1.68 1.73 1.78 1.81 1.81 1.84 1.82 1.80 1.79 1.77 1.73 1.69 1.64 1.61 1.58 1.54 1.49 1.45 1.45 1.46 1.45 1.41 1.40
1.23 1.29 1.32 1.36 1.37 1.35 1.39 1.50 1.49 1.48 1.60 1.56 1.54 1.56 1.64 1.81 1.93 1.87 1.87 1.80 1.73 1.67 1.60 1.56 1.52 1.59 1.71 1.68 1.58 1.56 1.54 1.52 1.55 1.59 1.60 1.61 1.64 1.66 1.67 1.69 1.70 1.71 1.73 1.74 1.78 1.82 1.83 1.83 1.83 1.85 1.88 1.93 1.99 2.02 1.91 1.85 1.96 1.96 1.93 1.72 1.65 1.65 1.66 1.64 1.65 1.68 1.74 1.76 1.77 1.75 1.74 1.74 1.70 1.64 1.56 1.52 1.51 1.49 1.47 1.45 1.43 1.42 1.45 1.46 1.44
1.25 1.27 1.31 1.38 1.42 1.44 1.39 1.35 1.45 1.50 1.52 1.57 1.62 1.62 1.63 1.69 1.79 1.86 1.79 1.73 1.71 1.67 1.60 1.58 1.59 1.62 1.67 1.70 1.69 1.70 1.70 1.69 1.71 1.72 1.75 1.79 1.79 1.79 1.80 1.80 1.83 1.84 1.86 1.88 1.89 1.87 1.85 1.83 1.82 1.84 1.86 1.90 1.89 1.86 1.93 1.91 1.79 1.86 1.94 1.82 1.64 1.65 1.65 1.65 1.68 1.71 1.74 1.75 1.75 1.74 1.72 1.69 1.66 1.62 1.57 1.56 1.52 1.48 1.44 1.42 1.44 1.45 1.44 1.43 1.43
1.29 1.29 1.31 1.38 1.43 1.44 1.43 1.30 1.34 1.48 1.52 1.55 1.65 1.74 1.77 1.78 1.78 1.77 1.74 1.70 1.69 1.67 1.64 1.62 1.62 1.64 1.66 1.71 1.74 1.77 1.77 1.76 1.76 1.80 1.83 1.86 1.87 1.86 1.86 1.88 1.90 1.93 1.95 1.95 1.94 1.91 1.86 1.84 1.83 1.84 1.85 1.84 1.90 1.97 1.90 1.90 1.85 1.74 1.68 1.61 1.56 1.55 1.58 1.64 1.71 1.74 1.75 1.74 1.72 1.72 1.69 1.67 1.65 1.64 1.63 1.62 1.59 1.55 1.49 1.46 1.46 1.44 1.42 1.42 1.42
1.38 1.35 1.35 1.39 1.44 1.48 1.48 1.39 1.29 1.42 1.55 1.61 1.65 1.72 1.77 1.79 1.79 1.77 1.71 1.68 1.65 1.68 1.69 1.67 1.66 1.67 1.68 1.71 1.77 1.76 1.72 1.72 1.74 1.79 1.84 1.86 1.87 1.87 1.89 1.91 1.92 1.92 1.90 1.88 1.88 1.87 1.86 1.84 1.82 1.81 1.85 1.92 1.95 1.92 1.89 1.90 1.94 1.90 1.77 1.73 1.80 1.82 1.80 1.79 1.77 1.72 1.70 1.69 1.70 1.67 1.66 1.65 1.62 1.58 1.52 1.49 1.46 1.42 1.39 1.36 1.31 1.30 1.32 1.32 1.31
1.38 1.38 1.38 1.40 1.42 1.45 1.49 1.48 1.40 1.40 1.49 1.60 1.63 1.69 1.75 1.76 1.73 1.71 1.69 1.64 1.61 1.65 1.71 1.77 1.79 1.75 1.69 1.69 1.73 1.71 1.70 1.70 1.72 1.75 1.79 1.80 1.82 1.86 1.89 1.89 1.88 1.85 1.83 1.82 1.83 1.83 1.81 1.77 1.77 1.82 1.87 1.85 1.84 1.86 1.85 1.82 1.79 1.76 1.75 1.69 1.62 1.64 1.65 1.65 1.71 1.72 1.78 1.80 1.76 1.71 1.63 1.55 1.44 1.37 1.35 1.36 1.36 1.33 1.30 1.31 1.31 1.29 1.26 1.22 1.20
1.36 1.42 1.40 1.38 1.39 1.43 1.46 1.49 1.50 1.46 1.46 1.53 1.58 1.65 1.70 1.70 1.68 1.69 1.69 1.68 1.67 1.70 1.76 1.82 1.80 1.69 1.62 1.65 1.71 1.70 1.68 1.66 1.66 1.68 1.70 1.74 1.79 1.83 1.85 1.84 1.82 1.80 1.79 1.77 1.76 1.76 1.80 1.85 1.87 1.84 1.80 1.81 1.80 1.77 1.74 1.70 1.66 1.62 1.61 1.64 1.71 1.69 1.61 1.56 1.64 1.70 1.71 1.72 1.64 1.54 1.51 1.51 1.52 1.50 1.45 1.39 1.34 1.31 1.30 1.31 1.30 1.28 1.26 1.25 1.22
1.36 1.45 1.47 1.42 1.37 1.39 1.48 1.51 1.53 1.52 1.55 1.62 1.66 1.67 1.74 1.73 1.74 1.73 1.71 1.67 1.68 1.72 1.76 1.75 1.70 1.63 1.61 1.65 1.69 1.68 1.65 1.63 1.62 1.62 1.67 1.76 1.85 1.86 1.81 1.77 1.74 1.71 1.69 1.67 1.66 1.68 1.68 1.67 1.68 1.70 1.72 1.72 1.69 1.65 1.62 1.58 1.55 1.53 1.56 1.62 1.69 1.73 1.67 1.58 1.56 1.57 1.59 1.56 1.50 1.48 1.50 1.51 1.50 1.48 1.45 1.41 1.37 1.35 1.32 1.30 1.27 1.25 1.24 1.22 1.18
1.27 1.39 1.48 1.49 1.47 1.44 1.46 1.51 1.55 1.55 1.57 1.61 1.64 1.71 1.78 1.77 1.75 1.76 1.72 1.66 1.65 1.68 1.73 1.72 1.70 1.66 1.62 1.62 1.66 1.66 1.63 1.61 1.62 1.66 1.74 1.83 1.86 1.83 1.78 1.73 1.70 1.68 1.69 1.72 1.73 1.73 1.72 1.70 1.67 1.66 1.65 1.62 1.58 1.58 1.53 1.47 1.48 1.55 1.58 1.57 1.55 1.50 1.47 1.47 1.47 1.48 1.49 1.48 1.46 1.43 1.40 1.38 1.35 1.34 1.33 1.32 1.30 1.28 1.24 1.21 1.19 1.16 1.13 1.12 1.12
1.20 1.27 1.38 1.46 1.47 1.47 1.49 1.50 1.52 1.54 1.56 1.53 1.52 1.60 1.67 1.68 1.68 1.67 1.66 1.63 1.64 1.68 1.71 1.72 1.71 1.66 1.61 1.66 1.69 1.65 1.63 1.61 1.62 1.67 1.73 1.73 1.69 1.67 1.68 1.69 1.69 1.65 1.61 1.57 1.56 1.56 1.56 1.56 1.57 1.58 1.54 1.53 1.58 1.59 1.51 1.47 1.47 1.46 1.48 1.66 1.77 1.67 1.53 1.47 1.47 1.47 1.46 1.45 1.44 1.39 1.35 1.29 1.25 1.23 1.23 1.24 1.24 1.22 1.19 1.17 1.14 1.13 1.12 1.11 1.09
1.17 1.20 1.27 1.42 1.46 1.46 1.44 1.51 1.54 1.54 1.55 1.56 1.60 1.61 1.63 1.61 1.58 1.59 1.62 1.67 1.70 1.69 1.71 1.74 1.73 1.66 1.66 1.71 1.71 1.65 1.63 1.66 1.65 1.66 1.64 1.73 1.74 1.73 1.70 1.66 1.60 1.53 1.49 1.49 1.49 1.49 1.48 1.48 1.49 1.48 1.47 1.48 1.48 1.43 1.37 1.36 1.37 1.41 1.45 1.49 1.50 1.48 1.45 1.45 1.44 1.42 1.38 1.35 1.33 1.32 1.32 1.31 1.29 1.25 1.24 1.23 1.22 1.19 1.16 1.13 1.11 1.09 1.07 1.05 1.03
1.12 1.13 1.18 1.29 1.42 1.46 1.45 1.45 1.52 1.59 1.56 1.58 1.56 1.55 1.56 1.56 1.53 1.53 1.59 1.64 1.65 1.69 1.67 1.67 1.62 1.61 1.66 1.73 1.73 1.67 1.64 1.65 1.67 1.71 1.73 1.65 1.60 1.54 1.51 1.46 1.45 1.45 1.45 1.46 1.45 1.45 1.44 1.43 1.42 1.41 1.38 1.35 1.34 1.39 1.49 1.56 1.57 1.62 1.56 1.48 1.42 1.40 1.43 1.43 1.43 1.43 1.42 1.41 1.38 1.35 1.31 1.29 1.26 1.24 1.23 1.22 1.20 1.16 1.12 1.08 1.05 1.03 1.02 1.03 1.03
Wind_Speed
27 28 28 28 28 28 27 27 27 26 25 25 24 24 23 22 21 20 19 18 17 16 15 15 14 14 13 13 12 12 12 11 11 11 11 11 10 10 9 9 9 8 8 8 7 7 8 8 8 8 8 7 7 7 8 7 7 7 6 6 6 6 6 6 6 5 4 4 4 3 4 4 5 5 7 8 8 9 9 9 9 10 10 11 12
27 27 27 28 28 28 28 28 27 27 26 26 25 25 24 23 22 21 21 20 19 18 17 16 15 15 15 14 14 13 13 13 13 12 12 12 11 11 10 10 10 9 9 9 8 8 8 8 8 8 8 8 7 7 8 8 7 7 7 7 7 7 7 7 7 7 6 6 5 5 5 6 6 6 7 8 8 9 9 9 9 10 11 12 13
26 26 27 28 28 28 28 28 28 28 27 27 27 26 25 24 24 23 22 21 20 20 19 18 17 16 16 16 15 15 15 14 14 14 13 13 13 12 12 11 11 10 10 9 9 9 8 8 9 8 8 8 8 7 7 8 8 8 8 8 9 8 8 8 8 8 8 8 7 7 7 7 7 7 8 8 8 9 9 9 10 11 11 13 14
25 26 26 27 28 28 28 29 29 29 28 28 27 27 26 25 25 24 23 23 22 21 20 20 19 18 18 17 17 16 16 16 16 15 15 14 14 13 13 12 12 12 11 11 10 10 10 9 9 9 9 9 9 8 8 8 9 9 10 10 10 10 9 10 10 10 10 9 9 8 8 8 8 9 9 9 9 9 9 9 10 11 12 13 14
25 25 25 26 27 27 28 29 29 29 29 29 28 28 27 27 26 26 25 24 23 22 22 21 20 20 19 19 18 18 18 18 18 17 16 16 15 15 14 14 13 13 12 12 12 11 11 11 10 10 10 10 10 9 9 9 10 10 11 11 11 11 11 11 11 11 11 12 11 10 9 9 9 9 9 10 10 10 10 10 10 11 12 13 14
25 25 25 25 26 27 27 28 29 29 29 29 29 28 28 28 27 27 26 26 25 24 23 22 22 22 21 20 19 19 19 19 19 19 18 17 17 16 15 15 14 14 13 13 13 13 12 12 12 12 11 11 11 10 10 10 10 11 11 11 12 12 12 12 12 12 13 13 12 11 10 10 10 10 10 10 10 11 11 11 11 10 11 12 14
25 25 25 25 25 26 27 27 27 28 29 29 29 29 28 28 28 28 27 27 26 25 25 24 23 23 23 22 21 20 20 20 20 20 20 19 18 17 17 16 16 15 15 14 14 14 14 14 13 13 13 13 12 12 12 11 11 11 12 12 12 12 13 13 13 13 13 13 13 12 12 11 11 11 11 11 11 11 12 12 11 11 12 13 14
26 26 25 25 25 25 26 26 27 27 28 28 29 29 29 29 29 28 28 28 27 27 26 25 24 24 24 24 23 22 21 21 21 21 21 20 20 19 18 17 17 16 16 16 15 15 15 15 14 14 14 14 14 14 13 13 12 12 12 12 13 13 13 14 14 14 14 14 14 14 13 13 13 12 12 12 12 12 12 11 12 12 13 13 13
27 27 26 25 25 25 25 26 26 27 27 28 28 29 29 29 29 29 29 28 28 27 27 26 25 25 25 25 24 23 23 22 22 22 22 22 21 21 20 19 18 18 17 17 16 16 16 16 15 15 15 16 16 15 15 14 14 14 14 13 14 14 14 14 14 15 15 15 15 15 14 14 14 13 13 13 13 13 12 12 12 13 13 14 14
28 28 27 27 26 25 25 25 26 26 27 27 28 28 29 29 29 29 29 29 29 28 28 27 26 26 25 26 26 25 24 23 23 24 24 23 22 22 21 20 20 19 18 18 17 17 17 16 16 16 16 16 16 16 16 16 16 15 15 15 14 14 14 14 14 15 15 15 16 16 15 15 15 15 14 14 14 13 13 13 14 14 14 14 15
28 28 28 28 27 26 25 25 25 26 26 27 28 28 29 29 29 29 29 29 29 29 28 28 27 27 26 26 26 26 25 25 25 25 25 25 24 23 22 22 21 20 19 19 18 18 17 17 17 17 17 17 16 16 17 17 17 16 16 16 15 15 15 15 15 15 15 15 16 16 16 16 16 16 15 15 14 14 14 14 14 14 14 14 15
28 29 29 29 28 27 26 26 25 25 26 26 27 28 28 29 29 29 30 30 29 29 29 29 28 27 27 27 27 27 27 26 26 26 26 26 25 24 23 23 22 21 21 20 20 19 19 18 18 17 17 17 17 17 17 17 17 17 17 17 17 17 17 16 16 15 15 15 16 16 16 17 17 17 16 16 15 15 15 15 14 14 14 15 15
28 28 28 29 29 28 27 27 26 26 25 25 26 27 28 28 29 29 29 30 30 30 29 29 29 28 28 28 28 27 27 28 27 27 26 27 27 26 25 24 23 22 22 21 21 20 20 19 19 18 18 18 18 18 18 18 18 18 18 18 18 19 19 18 18 17 17 16 16 16 16 16 17 17 16 16 16 16 16 15 15 15 15 16 16
29 29 28 29 29 29 28 28 27 26 26 25 26 26 27 28 28 29 29 29 29 30 30 30 29 29 29 29 28 28 28 28 28 28 28 27 27 27 26 25 25 24 23 23 22 22 21 20 20 20 19 19 19 18 18 18 18 18 18 18 19 19 20 20 20 19 19 18 18 18 17 17 17 17 16 16 16 17 17 17 16 16 16 17 17
30 29 29 29 29 29 30 29 28 27 27 26 26 26 27 28 28 28 28 29 29 29 30 30 30 29 29 29 29 29 29 29 29 29 29 28 28 28 27 27 26 25 25 24 24 23 22 22 21 21 20 20 19 19 19 19 18 18 18 19 19 20 20 21 21 21 20 20 20 19 19 18 18 17 16 16 16 17 17 17 17 17 17 18 17
30 30 29 29 29 30 30 31 30 29 28 28 27 27 27 27 28 28 28 28 28 29 29 29 29 30 30 30 30 29 29 29 29 29 29 29 29 29 29 28 28 27 26 26 25 24 24 23 22 22 21 21 21 21 20 20 20 20 20 19 19 19 20 21 21 22 22 22 22 21 21 20 19 19 18 17 17 17 17 17 18 17 18 18 18
29 30 30 30 30 30 31 32 31 30 30 29 29 28 27 27 27 28 28 28 28 28 28 29 29 29 30 30 30 30 30 30 30 30 30 29 29 29 29 29 29 29 28 27 26 25 25 24 24 23 22 22 22 22 22 21 21 21 21 20 20 20 21 20 21 21 22 23 23 23 23 22 21 20 19 18 18 18 18 18 18 18 18 19 19
27 29 30 31 31 31 31 33 33 32 31 31 30 29 29 28 28 28 28 28 28 28 28 28 28 29 29 30 30 30 30 30 30 30 30 30 29 29 29 29 29 29 29 28 28 27 26 26 25 24 23 23 23 23 22 22 22 21 21 21 21 21 21 21 20 20 21 22 23 23 23 23 22 21 20 20 20 19 19 19 18 18 18 19 19
25 26 27 29 32 32 32 33 33 32 32 32 32 31 30 29 29 28 29 29 28 28 28 28 28 28 29 29 30 30 30 30 30 31 31 30 30 29 29 29 29 29 29 29 29 28 27 27 27 26 25 24 24 24 23 23 22 22 22 21 21 22 21 21 20 20 20 20 21 22 22 22 22 21 21 21 20 20 20 20 19 19 19 20 20
26 26 24 26 30 32 33 34 34 33 32 32 33 32 32 31 30 29 29 29 29 28 28 28 28 28 29 29 29 30 30 30 30 31 31 31 31 30 30 29 29 29 29 29 29 29 28 28 27 27 26 25 25 24 24 24 23 23 22 22 22 22 21 21 21 20 20 20 20 21 21 21 21 22 22 21 21 21 21 21 20 21 21 21 20
28 28 27 26 28 30 32 34 34 33 32 32 33 33 33 32 32 31 30 30 30 29 29 28 28 28 28 29 29 29 29 30 30 31 31 32 32 32 31 30 30 30 29 30 30 29 29 28 28 27 26 26 25 25 24 24 24 24 23 23 23 23 22 22 22 21 21 21 20 21 21 21 22 22 22 21 20 20 21 21 21 22 22 22 21
29 29 29 28 28 29 31 33 34 34 33 32 33 33 34 33 33 32 31 31 31 30 30 29 29 28 28 29 29 29 29 30 30 30 31 31 32 32 32 32 31 31 30 30 30 30 30 29 29 28 27 26 26 25 25 25 25 24 24 24 24 24 23 23 23 22 22 21 21 21 21 21 22 22 21 21 20 21 21 22 22 22 22 22 22
29 30 30 30 29 29 30 32 33 33 33 33 33 33 34 34 34 33 33 32 32 31 31 30 29 29 29 29 29 29 29 29 29 29 30 31 32 32 33 33 32 32 31 31 31 31 31 30 29 29 28 28 27 27 26 26 26 25 25 25 25 25 24 24 23 23 22 22 22 22 22 22 22 22 22 21 21 22 22 22 22 22 21 21 22
29 30 31 31 31 30 30 31 33 34 34 33 33 33 33 34 34 34 33 33 32 32 31 30 30 29 29 29 29 29 29 29 29 29 30 30 31 32 33 33 33 32 32 32 32 31 31 31 30 30 29 29 28 27 27 27 26 26 26 26 26 26 25 25 24 24 23 23 23 23 22 22 22 22 22 22 22 22 22 21 21 21 20 21 22
29 30 31 32 32 32 31 31 33 34 34 34 34 33 33 33 33 33 33 33 33 32 32 31 30 30 29 29 29 29 29 29 29 29 30 31 31 31 32 33 33 33 33 32 32 32 32 31 31 31 30 29 28 28 27 27 26 26 26 26 26 26 26 26 25 24 24 24 23 23 23 23 23 22 22 22 22 22 22 21 21 20 21 21 22
29 30 30 31 33 33 33 33 33 34 35 35 35 34 33 33 33 33 33 33 33 33 32 32 31 30 30 29 29 29 29 29 29 29 30 30 31 31 32 32 33 33 33 33 33 33 33 32 32 31 30 29 29 28 27 27 27 26 25 25 25 25 25 25 25 24 24 24 24 24 23 23 23 23 22 22 22 22 22 22 21 21 21 21 21
30 30 30 31 32 34 35 34 34 34 35 36 35 35 34 34 33 33 33 33 33 33 33 32 32 31 30 30 29 29 29 29 29 29 30 30 30 31 31 32 32 32 33 33 33 33 33 32 32 31 30 29 29 28 28 27 27 26 25 25 25 25 24 24 24 24 24 24 24 23 23 23 23 23 23 23 23 23 22 22 22 21 21 21 20
31 31 31 31 32 33 34 35 34 35 36 36 36 36 35 35 34 34 34 34 33 33 33 33 33 32 32 31 30 30 29 29 29 30 30 30 30 30 31 31 31 31 31 32 32 32 31 31 30 30 30 29 29 29 28 28 27 26 26 25 25 25 24 24 24 23 23 23 23 23 23 23 23 23 22 22 22 22 22 22 22 21 21 20 20
32 32 32 32 32 33 34 35 35 35 36 37 37 37 37 36 36 35 35 34 34 34 34 34 34 33 33 33 32 31 31 30 30 31 31 31 31 30 30 30 30 30 31 31 31 31 30 30 30 30 30 30 29 29 29 28 28 27 26 26 26 25 25 24 24 23 23 23 23 23 22 22 22 21 21 21 21 21 21 21 21 21 20 20 20
32 32 32 32 32 33 34 35 35 36 37 38 38 38 38 38 37 36 36 36 36 35 35 35 34 34 34 34 34 34 33 32 31 32 32 32 31 31 30 30 30 30 30 30 30 30 30 30 30 30 30 30 30 30 29 29 28 27 27 26 26 25 25 24 24 24 23 23 23 22 22 21 21 20 20 20 20 20 20 21 21 20 20 20 20
33 33 33 32 32 33 34 35 36 37 37 38 38 37 37 37 37 36 36 36 36 36 36 35 35 35 35 35 35 35 35 34 32 32 33 33 32 32 31 31 31 30 30 30 30 30 30 30 31 31 31 31 31 31 30 29 29 28 28 27 26 25 25 24 24 24 23 23 22 22 21 21 21 21 21 21 20 20 21 21 20 20 20 20 20
34 34 34 34 33 33 34 35 37 38 38 38 38 38 38 37 37 36 36 36 37 37 37 36 36 36 36 35 35 35 35 34 33 33 34 34 33 33 32 32 31 31 30 30 30 30 30 31 31 31 31 31 31 31 31 31 30 29 28 27 25 25 25 25 24 24 24 23 22 22 21 21 21 21 21 21 20 20 20 20 20 20 20 21 21
35 35 36 36 35 34 34 35 37 39 39 39 39 39 39 38 38 38 38 37 37 38 38 37 37 37 36 36 36 35 35 35 34 34 34 34 34 34 33 33 32 31 31 30 30 30 31 31 32 32 32 32 32 32 32 32 31 30 28 27 26 25 24 24 24 24 24 23 23 22 22 22 21 21 21 21 21 21 21 21 21 21 21 21 21
35 36 37 37 37 36 35 36 37 39 40 40 41 41 41 40 40 40 39 38 38 38 38 38 38 37 37 36 36 36 36 36 35 35 35 35 35 34 33 32 32 31 31 31 31 31 31 31 32 32 33 33 34 34 34 33 32 30 28 26 25 24 23 23 23 23 24 24 23 23 22 22 22 22 22 22 21 21 21 22 22 22 22 22 22
35 36 38 38 39 38 37 37 38 39 40 41 42 42 42 42 41 40 40 39 39 39 39 38 38 38 37 36 36 36 36 36 35 35 36 36 35 34 33 33 32 32 32 32 32 32 32 32 32 33 34 34 34 35 34 32 29 27 26 25 23 23 22 23 23 24 24 24 23 23 23 23 23 22 22 22 22 22 23 23 22 23 23 23 23
35 36 37 38 39 39 39 39 39 40 40 40 41 41 42 42 41 40 40 39 39 39 39 39 38 38 38 37 36 36 36 36 36 36 36 36 35 35 34 34 33 33 32 33 33 33 33 33 33 34 34 34 35 34 32 29 27 25 25 24 24 24 24 24 24 24 24 25 25 24 24 24 24 23 23 23 23 23 23 23 23 24 23 23 22
35 36 37 38 38 39 40 40 40 40 41 40 40 40 41 41 41 40 40 39 39 39 39 39 39 38 38 37 36 36 35 35 35 35 35 35 35 35 35 34 34 33 33 33 33 33 34 34 34 34 34 34 34 32 29 27 26 25 25 26 26 26 26 26 26 25 26 26 26 26 26 26 26 26 25 25 24 24 24 24 24 23 23 22 22
36 37 37 38 39 40 40 41 41 40 41 41 41 41 41 41 41 41 40 39 39 39 39 40 40 40 39 38 37 37 36 35 35 35 35 35 35 35 35 34 34 34 33 33 33 34 34 34 34 34 34 34 32 29 27 25 25 23 23 24 24 24 25 25 26 26 26 26 26 25 25 25 25 26 26 25 25 24 24 24 24 23 23 23 22
36 37 37 38 38 40 41 41 40 40 41 41 40 40 40 39 39 39 39 38 38 38 38 39 41 41 40 38 37 37 36 36 36 36 35 35 35 35 35 35 34 34 33 33 33 33 33 33 33 33 33 33 32 30 28 26 25 23 21 21 21 22 23 24 25 25 25 25 25 25 24 24 24 24 24 25 24 24 24 24 24 24 24 24 23
35 36 37 37 38 39 41 42 40 40 40 40 39 39 38 38 37 37 36 36 37 38 38 38 40 40 40 39 38 37 37 37 37 36 36 36 36 36 35 35 34 34 34 33 33 33 33 32 32 31 31 32 32 30 28 27 26 24 23 22 23 23 23 24 25 25 26 26 26 25 25 24 23 23 24 24 24 25 24 24 24 24 24 25 25
34 35 36 37 37 38 40 42 42 41 41 40 39 39 38 37 36 36 35 35 36 37 37 38 39 39 39 39 39 38 38 38 38 37 36 36 35 35 34 34 34 33 33 33 32 32 31 31 31 31 30 30 30 29 28 27 27 26 26 26 26 25 25 26 26 27 27 26 26 26 25 25 24 24 25 25 25 25 24 24 24 25 25 25 25
32 33 34 35 36 36 37 40 41 42 41 40 39 39 38 38 37 36 35 35 36 37 37 37 38 38 39 39 39 39 38 38 38 37 36 35 34 33 32 32 32 32 32 31 31 31 31 31 30 30 29 29 29 28 28 28 28 28 27 27 27 27 27 27 27 27 27 27 27 27 27 26 26 26 26 25 25 25 25 25 25 25 25 25 25
28 30 32 32 33 34 35 37 39 40 41 40 40 39 38 38 37 36 35 35 36 36 36 36 37 38 39 39 39 38 38 38 38 37 35 34 33 32 31 31 31 31 31 31 31 30 30 30 30 29 29 29 29 28 28 29 29 29 29 28 28 28 27 27 27 27 27 28 28 28 27 26 26 26 25 25 25 25 25 25 25 25 25 25 25
24 26 28 30 31 31 32 34 36 38 39 39 39 38 38 37 37 36 35 35 35 36 36 36 37 38 38 39 38 38 38 38 38 37 35 34 32 31 31 31 31 31 30 30 30 30 30 30 30 30 29 29 29 29 29 30 30 30 29 29 28 28 27 26 26 27 27 26 26 26 25 25 25 25 24 25 25 25 25 25 25 26 26 25 25
23 23 25 27 29 29 30 31 33 35 36 37 37 37 37 36 36 35 34 34 34 35 36 36 36 37 38 38 38 37 38 39 38 37 35 34 32 31 30 30 30 30 30 30 30 30 30 30 30 29 29 29 29 29 29 29 29 29 28 27 27 27 27 26 26 26 26 25 24 24 24 24 24 24 24 25 25 25 25 25 25 25 26 26 26
23 22 23 24 26 27 27 28 30 31 32 34 36 37 37 36 36 35 34 33 34 35 36 35 35 36 37 38 37 37 37 38 38 37 35 34 32 31 31 31 30 30 30 30 30 29 29 29 29 29 28 28 29 28 28 27 27 26 26 25 25 26 26 25 25 25 25 24 24 24 24 24 24 24 25 25 25 25 25 25 25 25 25 25 26
22 20 20 21 22 24 24 25 25 27 29 31 32 33 33 33 34 33 33 33 33 34 35 35 35 35 37 38 38 38 37 38 38 37 35 33 32 31 31 30 30 30 29 29 29 29 28 28 28 28 28 27 27 26 26 26 25 25 24 24 25 25 25 25 25 24 24 24 24 25 24 24 24 24 25 25 25 25 24 24 25 25 26 26 27
21 19 17 17 18 20 21 22 23 24 26 27 28 27 27 28 29 30 30 31 32 33 34 34 34 35 37 37 37 37 38 38 37 36 34 33 32 30 29 29 28 28 28 27 27 28 27 27 27 26 26 26 25 25 25 25 25 25 24 24 24 24 24 24 24 24 23 23 23 24 24 24 24 24 24 24 24 25 25 26 26 26 27 28 28
20 19 17 15 15 16 17 19 20 21 22 23 24 25 24 25 26 27 28 28 29 31 33 34 35 36 36 36 36 36 36 37 36 35 34 32 30 29 28 27 27 27 27 27 27 27 26 26 26 25 25 25 25 25 25 24 25 25 24 23 22 22 22 22 22 23 23 23 23 23 23 23 23 23 24 24 25 26 26 27 27 28 28 29 30
20 19 17 15 15 15 15 15 16 18 19 19 21 22 22 23 24 25 26 27 28 29 30 32 34 35 35 34 34 34 34 34 34 32 31 30 28 27 27 27 26 27 27 27 27 26 26 25 25 25 24 24 25 25 24 24 24 23 22 22 22 22 22 22 22 22 23 23 23 23 23 23 24 24 25 25 26 27 27 28 28 29 30 30 31
20 19 18 16 16 16 15 14 13 14 15 17 18 18 19 20 21 22 24 25 27 29 29 30 30 32 33 33 32 32 32 32 32 30 29 28 27 27 26 26 26 26 26 26 26 25 25 25 25 24 25 25 25 24 23 22 21 20 20 21 21 21 21 21 21 22 22 22 23 23 24 24 25 25 26 27 27 28 29 29 30 30 31 31 32
Wind_Direction
210 211 212 212 213 214 214 214 213 212 213 213 214 215 215 215 215 216 216 216 216 216 217 215 214 215 214 213 211 210 207 205 204 203 201 202 202 200 199 198 198 198 196 194 193 193 192 191 192 192 191 193 195 197 198 198 197 198 198 200 200 200 202 203 210 225 237 246 260 279 297 305 310 314 319 325 329 330 332 333 334 338 342 342 341
211 212 212 212 213 214 215 216 215 214 214 215 216 216 216 217 217 218 218 218 219 219 219 219 217 217 217 216 215 213 211 209 207 206 206 206 206 205 204 204 203 202 201 200 199 199 199 198 198 198 198 200 200 202 205 205 205 207 209 213 217 217 218 220 224 232 245 260 271 281 289 294 297 303 310 317 323 327 330 329 329 332 336 336 336
211 212 213 213 214 214 215 216 217 216 216 216 217 218 218 218 219 220 221 221 221 222 222 221 220 219 218 218 217 216 215 213 210 210 210 210 209 209 207 207 208 206 206 206 205 205 207 207 207 206 206 208 208 208 212 215 217 220 221 224 228 230 231 233 236 241 249 261 271 276 281 286 290 297 305 311 317 324 326 324 324 327 330 333 334
211 212 213 214 215 215 215 216 217 218 218 218 218 219 220 220 220 221 222 222 223 224 224 223 222 222 220 219 218 218 217 216 214 213 213 212 211 211 211 211 211 211 211 211 211 211 213 215 215 215 216 217 219 220 222 224 226 227 229 231 234 238 239 239 243 247 252 260 267 273 276 280 286 294 302 307 312 318 319 321 324 325 327 331 335
211 212 213 214 215 215 216 217 217 219 219 220 220 220 221 221 222 222 223 223 224 225 225 225 224 223 222 220 220 220 219 218 217 216 216 216 215 214 214 215 215 216 216 217 218 218 219 221 223 224 225 225 226 228 230 231 233 233 235 236 238 242 244 244 246 249 253 258 264 270 273 277 284 292 297 303 309 312 313 318 322 322 325 331 334
211 212 213 214 215 215 216 217 218 219 220 221 222 222 222 222 223 224 224 224 224 225 226 226 225 224 224 222 221 221 221 220 219 218 218 218 218 218 218 219 219 221 221 222 224 225 226 227 229 230 232 232 233 234 235 236 239 239 240 241 242 244 245 247 248 249 251 255 261 268 273 278 283 287 291 297 303 307 310 313 317 319 323 328 332
211 212 213 214 215 216 216 217 218 219 220 222 223 223 223 223 223 224 225 225 225 225 226 227 226 226 225 224 223 222 223 222 221 220 220 220 220 221 221 222 223 224 226 227 228 230 231 232 233 233 235 237 238 239 240 241 242 243 244 245 246 247 248 250 250 251 253 256 261 267 273 277 279 282 287 292 295 299 303 307 311 316 321 325 329
212 212 213 215 216 217 218 218 219 220 221 222 223 223 224 224 224 224 225 225 226 226 226 227 227 227 227 226 225 224 224 224 223 222 221 222 222 223 224 225 226 227 229 231 232 233 235 236 237 238 238 240 241 243 245 245 246 247 248 249 250 250 252 253 254 255 256 258 262 266 271 274 276 279 284 288 290 292 296 298 303 311 317 321 326
212 213 214 215 216 217 219 220 220 221 222 222 223 223 224 224 224 224 225 226 227 227 227 228 228 228 227 227 227 226 225 225 224 224 223 223 224 225 226 227 228 229 231 234 235 236 238 239 240 242 242 243 244 245 246 247 248 249 250 251 252 253 254 255 256 257 257 259 262 265 269 272 274 278 281 283 285 288 290 291 296 304 312 317 322
213 214 215 216 217 218 219 221 221 222 223 223 223 223 224 224 224 224 225 226 227 227 228 228 228 228 227 227 227 227 227 227 225 225 224 225 226 227 228 229 230 231 233 235 237 238 240 241 242 243 244 245 246 247 247 248 249 251 251 251 251 252 254 255 256 257 258 259 262 264 267 270 272 275 278 280 281 283 284 287 292 298 305 312 318
214 215 216 217 217 218 219 221 222 223 224 224 224 224 224 224 224 225 225 226 227 227 228 228 228 228 228 228 228 228 228 228 226 226 226 226 227 228 229 230 231 232 234 235 237 239 241 243 244 245 245 246 247 248 249 249 251 251 252 251 251 252 253 254 256 257 258 259 261 263 265 268 271 274 276 279 279 279 280 282 287 293 300 305 310
216 217 218 219 218 218 219 221 222 223 224 225 225 225 225 225 225 225 225 226 226 227 228 228 229 229 229 228 228 229 229 228 228 227 227 227 227 229 230 231 232 234 235 236 238 240 242 244 245 247 247 247 248 250 250 251 252 252 252 252 253 253 253 254 256 257 258 259 261 263 264 266 270 272 274 276 277 276 278 280 283 288 294 299 303
217 218 219 220 220 220 220 220 222 223 224 225 226 226 226 226 225 225 225 226 226 227 228 228 229 229 229 229 229 229 230 229 229 229 228 228 228 229 231 232 233 235 236 238 239 240 242 244 246 248 249 249 250 251 251 252 253 253 254 255 255 256 255 256 256 257 259 259 260 263 265 267 269 271 272 273 273 275 277 279 282 286 290 295 300
218 219 220 221 221 222 221 221 222 223 224 225 226 226 226 226 226 226 226 226 226 227 228 229 229 229 229 230 230 231 231 231 230 230 230 229 229 229 231 233 234 236 237 239 240 242 243 245 247 248 250 250 251 251 251 251 252 253 255 256 257 257 257 257 257 257 258 259 260 263 266 267 269 272 273 271 271 273 275 278 281 284 288 293 297
220 221 222 223 222 223 223 222 222 223 224 225 226 227 227 227 227 227 226 226 227 228 228 229 230 230 230 230 231 232 232 232 231 231 231 231 231 231 232 233 234 236 238 239 241 243 245 246 248 250 251 252 252 252 252 252 253 254 255 256 257 259 259 259 259 258 258 259 260 263 266 267 269 272 273 271 271 273 274 277 279 281 286 292 296
223 224 225 225 223 224 224 224 223 223 224 225 225 226 227 228 228 227 227 227 228 228 229 230 231 231 231 231 231 232 233 233 232 232 232 232 232 233 233 234 235 237 239 240 242 244 246 247 249 250 251 252 252 252 253 254 254 255 256 257 258 260 261 261 260 259 259 259 260 262 265 267 268 270 271 271 272 273 274 277 278 280 284 289 293
226 226 227 227 225 225 225 224 224 223 224 224 225 226 227 228 228 228 228 228 228 228 229 230 231 232 232 232 232 233 234 234 233 233 233 233 233 234 235 235 236 237 239 241 243 244 246 247 249 251 252 252 252 252 252 253 255 255 256 257 259 261 262 263 263 261 260 260 260 261 263 265 267 267 269 270 271 271 273 276 278 280 282 286 289
225 225 228 228 227 227 226 225 225 224 224 224 225 226 227 228 228 229 229 229 229 229 230 231 232 232 233 233 233 233 235 234 233 234 234 234 234 235 236 236 237 238 239 241 242 244 245 247 248 250 252 252 252 251 251 253 255 256 256 258 260 261 263 265 265 264 263 262 261 261 262 264 265 266 268 268 267 268 270 274 278 279 282 284 286
221 223 229 231 229 228 227 226 225 225 224 225 226 226 227 228 229 229 230 230 231 231 231 231 232 233 234 234 234 234 235 235 235 234 235 235 235 236 237 237 238 239 240 241 242 244 245 246 247 249 251 252 252 251 251 252 254 256 257 258 259 261 263 265 266 266 266 265 264 263 263 264 264 266 268 267 265 266 269 273 276 278 280 284 286
221 226 234 234 231 230 228 227 227 226 226 226 226 227 227 228 228 229 230 231 232 232 232 232 232 233 234 235 235 236 236 237 236 236 236 236 236 237 238 238 238 239 240 241 243 244 245 246 248 249 250 251 251 251 251 251 253 255 256 257 258 261 264 265 266 267 267 267 267 265 264 264 264 266 268 267 266 266 268 271 274 276 279 283 285
228 231 236 236 233 232 230 228 229 229 228 227 227 228 228 228 228 228 229 230 231 232 233 234 234 234 234 235 236 236 237 238 237 237 237 237 237 238 239 239 239 240 241 242 243 245 246 247 248 249 249 250 251 251 252 252 253 255 256 256 258 261 264 265 266 267 267 267 267 267 265 265 266 267 268 267 267 268 268 270 274 276 278 281 284
234 235 236 237 236 234 231 230 230 230 230 229 228 228 228 228 228 229 229 230 231 232 233 234 235 236 236 235 236 237 238 238 238 238 238 238 238 238 239 241 241 241 242 243 244 245 247 248 249 249 250 250 250 251 252 252 253 255 256 257 259 260 262 264 266 266 267 267 267 267 267 267 268 268 268 268 268 269 270 272 275 277 279 280 282
238 238 238 238 238 236 235 233 232 231 231 230 229 228 228 229 229 229 229 230 231 231 233 234 235 236 237 236 237 237 238 238 239 239 239 239 239 239 240 241 242 242 242 243 244 246 248 249 250 251 251 251 251 251 252 253 254 256 256 258 259 260 261 263 264 265 265 265 266 266 268 268 269 269 269 268 269 270 272 274 276 277 278 280 282
240 240 239 239 239 238 237 236 234 232 231 230 229 229 228 228 229 229 230 230 231 231 232 233 235 236 237 237 237 237 238 238 239 240 240 240 240 241 241 242 243 243 243 244 245 247 248 249 250 251 252 252 252 252 252 253 255 255 256 257 258 260 261 262 263 264 264 264 265 266 268 269 270 270 270 270 270 271 273 274 275 276 278 280 283
243 242 241 240 240 239 239 238 236 234 232 230 230 229 228 229 229 229 230 231 231 232 233 233 235 236 237 238 238 238 239 239 239 240 240 241 241 242 242 243 243 243 244 245 246 247 248 249 250 252 252 252 252 252 253 253 254 255 256 256 257 258 260 261 262 263 263 263 264 266 267 269 271 271 271 271 271 271 272 273 274 275 278 281 284
244 244 243 242 241 240 240 239 238 235 233 231 230 230 229 229 230 230 230 231 232 233 234 234 235 236 238 239 239 239 240 240 240 241 241 242 242 243 243 243 244 244 245 246 247 247 248 249 250 251 252 252 252 252 253 253 254 255 255 256 256 257 258 259 260 261 262 263 264 266 268 270 271 272 272 271 270 270 270 271 273 275 278 281 283
244 244 245 244 243 241 240 239 237 235 233 231 231 231 231 231 231 231 231 231 232 234 234 234 235 237 238 239 239 240 241 240 240 241 242 243 243 243 244 244 245 245 246 247 247 247 248 249 250 251 251 251 251 252 252 253 254 254 255 256 256 257 257 258 259 261 262 264 266 267 269 270 271 271 271 270 269 269 270 270 272 274 276 279 281
245 244 244 245 244 242 239 238 236 234 233 231 231 231 231 231 231 232 232 232 233 234 235 235 236 237 238 238 239 240 241 241 241 242 242 243 244 243 244 245 245 245 246 246 246 247 247 248 249 249 249 250 250 251 251 252 252 253 255 256 256 256 257 258 259 261 263 265 266 267 268 269 270 270 270 269 268 268 269 270 271 273 274 277 278
245 244 244 244 243 242 239 238 236 235 233 232 232 232 232 232 233 234 234 234 235 236 236 236 237 238 238 238 239 240 241 242 243 242 242 243 244 244 244 244 244 245 244 244 245 245 245 246 247 247 247 247 248 249 249 250 251 252 254 255 256 256 257 257 258 260 262 263 264 265 267 268 270 270 270 268 267 267 267 269 271 272 273 275 278
245 244 243 243 243 242 239 238 237 236 234 233 233 233 233 233 234 235 236 236 236 237 238 238 239 239 239 239 239 240 242 243 244 243 242 242 243 244 245 244 244 243 243 243 243 244 244 245 245 245 245 246 246 247 248 249 250 252 253 254 255 256 257 257 258 259 260 261 262 263 265 266 268 268 268 267 266 265 266 268 270 271 273 275 278
245 245 244 243 244 243 240 238 238 236 235 234 233 233 233 234 235 236 237 237 237 238 239 239 240 240 240 240 241 241 242 244 244 244 242 242 243 244 245 244 243 242 242 241 242 242 243 243 244 244 244 246 247 248 248 249 250 251 251 253 254 255 257 257 257 257 258 258 260 262 264 265 266 266 266 266 265 265 266 268 269 271 274 276 278
246 245 244 244 245 244 242 240 238 237 236 235 234 233 233 233 235 236 237 238 238 238 239 239 240 241 241 240 241 241 242 243 243 243 242 241 242 243 244 244 243 242 241 241 241 242 242 243 244 244 245 246 248 248 249 249 249 248 249 250 252 254 256 257 256 256 256 258 260 262 263 264 265 266 265 265 265 265 266 267 269 271 273 276 278
247 246 245 244 244 244 243 242 239 237 236 235 234 234 234 234 235 237 238 238 239 239 239 239 240 242 242 241 240 241 241 242 242 242 241 241 241 242 243 243 242 241 240 240 241 242 243 243 244 245 246 248 249 250 249 248 247 246 245 247 249 253 256 257 257 256 257 258 260 261 263 264 265 265 264 265 266 265 265 266 268 270 273 275 277
248 246 246 245 244 243 243 242 241 239 237 236 235 235 235 235 236 238 239 239 239 240 240 240 240 242 242 241 240 240 241 241 241 241 240 239 240 240 241 241 241 240 240 241 241 242 243 244 245 247 248 249 251 251 250 248 246 245 244 244 247 252 255 256 255 255 256 257 258 260 262 264 264 264 264 264 264 263 263 264 267 269 272 274 276
249 248 247 246 244 243 242 242 241 240 239 237 236 236 235 235 236 237 238 238 238 238 239 240 240 241 241 240 240 239 240 240 241 240 239 238 238 238 238 239 239 240 240 241 242 243 244 245 247 248 250 251 252 252 250 248 248 249 249 248 248 252 254 254 254 254 254 255 257 260 262 262 261 262 263 263 262 261 262 264 267 270 273 274 275
251 248 247 247 245 243 242 242 242 241 240 238 237 236 236 236 236 237 238 238 238 238 238 239 240 240 240 239 239 238 238 239 239 239 238 237 236 236 237 238 239 239 240 241 242 244 245 246 248 250 251 253 254 253 251 249 251 253 254 252 251 253 255 254 254 254 255 256 257 259 260 260 260 260 261 263 263 263 263 265 268 271 273 273 274
252 249 248 247 245 244 243 243 242 241 241 239 237 236 236 236 236 236 237 237 237 238 237 237 238 239 238 237 237 237 237 237 237 237 236 236 235 236 237 238 239 239 240 241 242 244 245 247 248 250 252 254 255 256 254 253 254 256 255 253 252 253 255 255 255 255 256 257 258 259 261 261 261 260 260 262 264 265 265 267 269 271 271 271 271
252 250 249 248 247 244 243 242 242 242 241 240 238 237 236 235 235 235 235 236 237 237 237 236 236 237 236 235 235 235 236 235 234 234 234 234 234 235 236 237 238 239 240 241 242 243 245 246 248 250 252 254 256 257 257 257 259 258 256 253 253 253 255 255 256 256 257 258 259 260 261 261 261 260 260 260 261 264 266 267 269 270 270 269 269
255 252 250 250 248 245 242 241 241 241 242 242 241 240 238 236 234 233 233 235 236 237 237 236 236 236 235 234 234 233 233 233 232 231 232 233 233 235 235 236 237 239 240 241 242 243 244 246 248 249 252 253 255 257 259 261 261 259 256 255 256 257 258 258 258 257 257 258 260 260 260 260 260 260 259 259 260 263 266 267 268 268 268 268 267
257 254 252 251 249 245 242 240 239 241 242 243 243 244 243 240 236 233 233 234 235 236 237 236 235 235 235 233 231 230 231 231 231 231 231 232 233 234 235 236 237 239 240 241 242 242 244 245 247 249 251 254 257 260 261 261 260 260 262 263 263 262 261 260 259 259 258 259 261 261 260 259 259 259 260 261 262 264 266 267 268 268 267 267 267
258 256 254 252 251 247 243 239 238 240 241 241 242 242 242 241 238 236 236 235 236 236 237 235 234 233 233 231 229 229 229 230 230 230 231 232 233 234 235 236 237 238 238 239 240 241 242 244 247 249 251 254 257 260 260 259 260 264 268 268 267 265 264 263 261 260 259 259 259 259 258 258 258 259 260 261 261 264 266 268 268 268 268 267 268
256 255 254 253 251 249 245 242 240 240 239 240 240 240 239 239 239 238 237 237 237 236 236 234 232 231 230 229 228 228 229 229 229 229 230 231 231 232 233 234 235 236 237 238 239 240 242 243 246 248 251 253 255 257 258 259 262 266 268 268 268 268 267 264 262 260 258 258 258 258 258 259 260 260 259 259 261 263 266 267 268 268 268 269 270
257 254 252 251 250 249 247 244 242 240 238 238 238 238 237 237 238 237 237 237 237 236 234 233 231 229 228 227 226 227 227 227 226 227 228 229 229 230 231 233 234 234 236 237 238 239 241 243 245 248 250 252 254 257 260 262 264 265 266 268 269 268 266 263 261 260 258 257 258 258 259 259 259 258 258 259 260 263 265 265 266 267 269 270 272
260 256 252 249 248 248 248 246 243 240 239 238 237 236 236 236 236 237 237 236 236 234 232 231 229 226 225 225 224 224 225 225 225 225 227 228 228 229 230 232 233 234 235 237 238 240 241 243 245 247 249 252 255 258 261 263 264 265 266 268 268 266 265 263 261 259 258 257 257 257 256 256 256 257 258 260 261 263 264 264 265 267 269 270 271
262 261 257 252 248 247 248 247 244 241 240 238 236 235 235 234 234 235 235 235 234 231 229 228 227 224 223 223 224 223 223 223 223 224 225 227 227 228 229 230 232 233 235 237 239 240 241 243 244 246 249 253 256 258 259 261 263 265 266 267 264 262 262 262 260 258 257 257 257 257 257 256 256 258 260 261 263 263 264 265 265 267 268 269 270
260 263 261 256 250 246 246 247 245 242 240 238 235 234 233 232 232 232 233 232 231 228 226 226 225 224 222 223 223 222 222 221 220 221 224 225 225 226 227 229 230 233 234 236 238 239 240 243 245 247 250 252 254 255 257 259 262 263 264 264 262 261 262 261 259 258 258 258 259 259 259 258 258 259 261 262 263 263 264 265 266 267 268 269 270
256 260 262 260 253 247 245 244 243 240 239 238 236 233 231 230 229 229 230 229 228 226 224 224 225 223 222 222 222 221 220 219 218 219 221 222 222 222 224 226 228 231 233 235 237 239 241 244 246 247 248 250 252 254 256 259 260 261 261 261 261 262 263 261 260 260 261 260 260 259 258 258 259 260 261 262 262 263 264 266 267 268 269 270 271
252 256 260 260 255 249 245 243 241 238 237 236 235 234 231 228 227 226 227 227 226 225 223 223 223 222 221 221 220 220 218 217 217 217 218 218 219 220 222 224 226 229 232 235 237 239 242 243 245 246 247 250 252 254 256 258 258 258 258 259 260 262 262 261 260 260 260 259 258 259 258 257 259 260 261 262 263 264 266 267 269 270 272 273 274
247 251 255 257 256 253 248 244 241 239 237 235 234 233 230 226 224 224 224 224 223 223 222 222 222 221 219 218 217 217 216 215 214 214 214 214 215 217 220 223 227 231 233 236 238 239 241 242 244 246 248 250 251 253 255 256 256 256 256 257 259 261 263 263 261 260 259 259 258 258 258 259 260 262 263 264 265 267 268 269 271 272 273 275 276
243 246 249 250 251 251 250 248 244 240 237 233 231 229 227 224 223 223 223 223 222 222 222 222 222 220 217 214 213 213 214 212 210 209 210 211 213 217 220 224 228 232 233 235 237 238 240 243 245 246 247 248 250 252 254 255 254 255 256 258 260 262 263 263 262 261 261 261 261 260 261 261 263 264 266 267 268 269 271 272 273 274 275 276 277
240 242 244 246 246 245 247 249 248 242 235 230 229 229 227 225 223 223 222 224 225 224 223 224 223 221 217 213 212 212 211 208 207 208 210 212 215 219 222 225 229 231 232 234 236 238 240 243 245 246 248 249 250 250 252 253 254 256 257 259 260 262 262 262 262 263 262 262 263 264 265 265 266 267 269 270 271 272 273 274 275 276 277 278 279